Location: El Mouella
(16.4949°N, 9.1594°W)
Time: 02:21:35
(UTC+00:00)

H-2A R/B - Pass Details

Date: 30 September 2020
Orbit: 734 x 836 km, 98.2° (Epoch: 20 October)

Event Time Altitude Azimuth Distance (km) Brightness Sun altitude
Exits shadow 19:36:31 24° 129° (SE) 1,529 3.1 -17.7°
Maximum altitude 19:39:01 40° 75° (ENE) 1,095 2.3 -18.3°
Drops below altitude 10° 19:43:44 10° 7° (N) 2,304 4.4 -19.4°
Sets 19:46:11 0° 360° (N) 3,248 5.3 -20.0°
